EW8476 Weather Reports


Display with metric or nautical units.
time (UTC)temp
F
wind
direction
speed
MPH
gust
MPH
rain 1hr
in
rain 24hr
in
rain mn
in
humidity
%
barometer
mb
20260502204557 67 81 5.0 12.0 0.00 0.03 0.00 44 944.3
20260502203556 68 44 5.0 12.0 0.00 0.03 0.00 45 944.4
20260502202540 67 58 5.0 11.0 0.00 0.04 0.00 46 944.4
20260502201612 67 26 6.0 11.0 0.00 0.04 0.00 47 944.5
20260502200554 67 57 5.0 14.0 0.00 0.04 0.00 47 944.6
20260502195628 66 44 5.0 11.0 0.00 0.04 0.00 47 944.8
20260502194526 66 38 5.0 10.0 0.00 0.04 0.00 50 944.8
20260502193727 66 51 7.0 17.0 0.00 0.04 0.00 51 944.8
20260502192544 66 51 5.0 14.0 0.00 0.04 0.00 52 944.9
20260502191533 66 60 5.0 12.0 0.00 0.04 0.00 50 944.9
20260502190607 65 60 6.0 13.0 0.00 0.04 0.00 51 945.0
20260502185614 65 58 7.0 13.0 0.00 0.04 0.00 48 944.9
20260502184541 65 24 6.0 13.0 0.00 0.04 0.00 53 944.9
20260502183531 64 80 5.0 13.0 0.00 0.04 0.00 49 944.8
20260502182541 64 55 8.0 13.0 0.00 0.04 0.00 51 944.9
20260502181625 64 80 4.0 10.0 0.00 0.04 0.00 56 945.2
20260502180614 64 44 5.0 14.0 0.00 0.04 0.00 55 945.2
20260502163536 60 57 6.0 13.0 0.00 0.19 0.00 66 945.7
20260502162538 60 65 5.0 11.0 0.00 0.20 0.00 66 945.6
20260502161631 59 16 7.0 13.0 0.00 0.21 0.00 67 945.6
20260502160554 59 63 6.0 13.0 0.00 0.21 0.00 67 945.7
20260502151546 57 20 5.0 11.0 0.00 0.21 0.00 69 945.5
20260502150515 56 29 5.0 13.0 0.00 0.21 0.00 70 945.4
20260502130522 48 6 3.0 6.0 0.00 0.24 0.00 89 943.3
20260502123533 46 346 1.0 6.0 0.00 0.30 0.00 93 943.0
20260502122611 46 354 2.0 4.0 0.00 0.33 0.00 95 942.8
20260502121554 45 127 0.0 3.0 0.00 0.33 0.00 96 942.5
20260502120539 45 54 2.0 2.0 0.00 0.34 0.00 95 942.4
20260502115533 45 65 1.0 3.0 0.00 0.35 0.00 95 942.3
20260502114611 45 316 1.0 3.0 0.00 0.39 0.00 94 942.2
20260502113555 46 75 2.0 3.0 0.00 0.40 0.00 93 942.2
20260502112541 46 17 2.0 5.0 0.00 0.41 0.00 93 942.2
20260502111529 45 16 2.0 5.0 0.00 0.41 0.00 95 941.9
20260502110555 45 28 1.0 4.0 0.00 0.41 0.00 96 941.9
20260502105558 45 44 1.0 4.0 0.00 0.41 0.00 96 941.9
20260502104531 45 40 0.0 3.0 0.00 0.41 0.00 96 942.0
20260502103522 45 18 3.0 6.0 0.00 0.41 0.00 97 941.9
20260502102615 45 34 1.0 4.0 0.00 0.42 0.00 97 941.7
20260502101559 45 72 1.0 5.0 0.00 0.45 0.00 97 941.7
20260502100545 45 57 1.0 4.0 0.00 0.46 0.00 97 941.6
20260502090524 45 43 2.0 6.0 0.00 0.63 0.00 97 940.5
20260502071536 47 15 4.0 8.0 0.00 0.66 0.00 97 940.7
20260502070628 47 25 3.0 6.0 0.00 0.67 0.00 97 940.8
20260502065629 47 32 2.0 4.0 0.00 0.69 0.00 97 941.0
20260502064614 47 20 2.0 5.0 0.00 0.69 0.00 97 940.9
20260502063532 47 6 3.0 6.0 0.00 0.70 0.00 97 941.1
20260502062621 47 13 2.0 6.0 0.00 0.70 0.00 96 941.2
20260502061605 47 12 2.0 5.0 0.00 0.70 0.00 96 941.3
20260502060544 47 8 1.0 3.0 0.00 0.70 0.00 96 941.2
20260502055553 47 38 0.0 3.0 0.00 0.70 0.00 96 941.1
20260502054520 48 4 3.0 6.0 0.00 0.70 0.00 96 940.9
20260502053604 48 37 3.0 6.0 0.00 0.70 0.00 96 940.8
20260502052701 48 21 3.0 5.0 0.00 0.71 0.00 96 940.9
20260502051540 48 65 2.0 6.0 0.00 0.71 0.00 95 940.9
20260502050529 48 29 2.0 4.0 0.00 0.71 0.00 95 941.0
20260502045614 48 53 3.0 6.0 0.00 0.72 0.72 95 940.8
20260502044615 49 63 2.0 8.0 0.00 0.72 0.72 94 940.9
20260502043548 49 41 5.0 9.0 0.00 0.72 0.72 94 940.9
20260502042633 49 33 4.0 8.0 0.00 0.72 0.72 93 940.9
20260502041519 49 25 5.0 9.0 0.00 0.73 0.72 92 941.0
20260502040609 49 34 3.0 8.0 0.00 0.73 0.72 92 941.0
20260502035654 49 37 4.0 9.0 0.00 0.73 0.72 93 940.8
20260502034531 49 39 6.0 9.0 0.00 0.73 0.72 93 940.7
20260502033621 49 51 5.0 11.0 0.00 0.73 0.72 93 940.8
20260502032610 49 43 4.0 10.0 0.00 0.74 0.72 93 940.5
20260502031539 49 43 4.0 11.0 0.00 0.75 0.72 92 940.5
20260502030526 49 34 4.0 8.0 0.00 0.75 0.72 92 940.4
20260502025611 50 44 4.0 10.0 0.00 0.75 0.72 91 940.3
20260502024551 50 46 4.0 9.0 0.00 0.76 0.72 91 940.2
20260502023536 50 35 5.0 12.0 0.00 0.77 0.72 91 939.9
20260502022523 50 32 8.0 13.0 0.00 0.79 0.72 95 940.0
20260502021620 51 29 6.0 11.0 0.00 0.83 0.72 96 940.0
20260502020558 51 34 4.0 10.0 0.00 0.87 0.72 96 939.9
20260502015549 50 42 5.0 11.0 0.00 0.90 0.72 96 939.5
20260502014519 50 36 5.0 11.0 0.00 0.91 0.72 95 939.3
20260502013710 50 35 5.0 12.0 0.00 0.91 0.72 95 939.3
20260502012621 50 38 4.0 9.0 0.00 0.96 0.72 95 939.2
20260502011547 50 43 7.0 12.0 0.00 0.97 0.72 94 938.9
20260502010528 51 48 5.0 13.0 0.00 1.00 0.72 94 938.7
20260502005536 51 51 8.0 14.0 0.00 1.00 0.72 94 938.6
20260502004649 51 42 6.0 14.0 0.00 1.00 0.72 94 938.4
20260502003554 51 51 9.0 16.0 0.00 1.00 0.72 93 938.4
20260502002535 51 45 9.0 18.0 0.00 1.00 0.72 93 938.2
20260502001624 51 56 7.0 17.0 0.00 1.00 0.72 92 938.2
20260502000609 51 51 6.0 17.0 0.00 1.00 0.72 93 938.0
20260501235558 51 34 8.0 19.0 0.00 1.00 0.72 94 937.8
20260501234531 51 44 9.0 18.0 0.00 1.00 0.72 94 937.6
20260501233515 51 44 9.0 19.0 0.00 1.00 0.72 94 937.2
20260501232613 51 41 10.0 20.0 0.00 1.00 0.72 96 937.0
20260501231556 51 25 8.0 18.0 0.00 1.00 0.72 96 937.0
20260501230541 51 28 10.0 16.0 0.00 1.00 0.72 96 937.0
20260501225527 52 37 7.0 17.0 0.01 1.00 0.72 96 937.0
20260501224615 52 35 8.0 21.0 0.01 1.00 0.72 97 936.9
20260501223558 52 33 8.0 17.0 0.01 1.00 0.72 97 937.1
20260501222538 51 40 8.0 19.0 0.01 1.00 0.72 98 936.9
20260501221519 51 29 10.0 21.0 0.01 1.00 0.72 98 937.0
20260501220606 52 36 9.0 21.0 0.01 1.00 0.71 98 937.0
20260501215558 52 30 14.0 21.0 0.01 1.00 0.71 99 936.8
20260501214532 52 17 10.0 21.0 0.01 0.99 0.71 98 936.7
20260501213517 52 11 9.0 19.0 0.01 1.00 0.71 98 936.7
20260501212624 52 21 8.0 18.0 0.02 1.02 0.71 98 937.1
20260501211537 53 13 9.0 19.0 0.02 1.02 0.71 98 937.4
20260501210516 53 14 6.0 19.0 0.02 1.02 0.70 98 937.4
20260501205609 53 10 7.0 16.0 0.02 1.02 0.70 98 937.4